User: anonymous   Login
Location: Unspecified
(0.0000°N, 0.0000°E)
Time: 17:42:05
(UTC+00:00)
Language:

Symphonie 2 - Orbit

View from above orbital plane
View from above orbital plane
View from above satellite
View from above satellite

Ground track
Ground track

The orbit data is extracted from the following two-line orbital elements,

1  8132U 75077A   18199.07669927 -.00000125 +00000-0 +00000-0 0  9993
2  8132 010.8948 311.6744 0004299 319.4947 045.9341 00.99983308113553
Epoch (UTC): 18 July 2018 01:50:26
Eccentricity: 0.0004299
inclination: 10.8948°
perigee height: 35849 km
apogee height: 35885 km
right ascension of ascending node: 311.6744°
argument of perigee: 319.4947°
revolutions per day: 0.99983308
mean anomaly at epoch: 45.9341°
orbit number at epoch: 11355

The dashed part of the orbit path shows where the satellite is in the earth's shadow,  

DLR